CST,Max TemperatureF,Mean TemperatureF,Min TemperatureF,Max Dew PointF,MeanDew PointF,Min DewpointF,Max Humidity, Mean Humidity, Min Humidity, Max Sea Level PressureIn, Mean Sea Level PressureIn, Min Sea Level PressureIn, Max VisibilityMiles, Mean VisibilityMiles, Min VisibilityMiles, Max Wind SpeedMPH, Mean Wind SpeedMPH, Max Gust SpeedMPH,PrecipitationIn, CloudCover, Events, WindDirDegrees
2013-12-1,58,44,29,39,35,29,100,72,43,30.14,30.06,29.91,10,6,0,9,4,12,0.00,0,Fog,307
2013-12-2,54,44,34,44,38,31,96,81,66,29.88,29.75,29.67,10,9,6,13,7,15,0.00,4,,164
2013-12-3,62,50,38,50,43,37,100,78,55,29.66,29.63,29.57,10,5,0,17,9,21,0.00,3,Fog-Snow,161
2013-12-4,64,46,28,51,43,22,96,76,56,29.95,29.67,29.52,10,9,5,24,12,32,0.00,7,,224
2013-12-5,28,25,21,22,11,8,81,68,54,30.35,30.20,29.94,10,10,10,22,13,27,0.00,5,,318
2013-12-6,22,17,11,9,4,1,67,56,45,30.66,30.48,30.35,10,10,10,18,12,22,0.00,6,,358
2013-12-7,23,15,7,5,2,1,80,61,41,30.75,30.63,30.45,10,10,10,14,8,18,0.00,2,,44
2013-12-8,25,22,18,23,18,5,96,74,51,30.43,30.14,30.00,10,6,1,15,8,20,0.04,8,Snow,150
2013-12-9,24,19,13,21,12,7,88,75,62,30.39,30.28,30.11,10,10,10,18,10,24,0.00,5,,291
2013-12-10,36,22,7,14,10,3,83,61,38,30.34,30.30,30.27,10,10,10,18,9,23,0.00,0,,233
2013-12-11,31,22,12,19,8,-3,74,56,37,30.67,30.52,30.30,10,10,9,24,9,30,0.00,0,Snow,316
2013-12-12,44,26,7,19,9,-1,73,49,24,30.62,30.45,30.25,10,10,10,21,10,23,0.00,0,,200
2013-12-13,35,29,23,33,28,15,100,79,58,30.22,30.00,29.89,10,5,1,16,10,20,0.91,7,Rain-Snow,153
2013-12-14,33,29,24,32,27,19,96,89,81,30.22,30.00,29.84,8,4,1,23,11,31,0.12,8,Snow,336
2013-12-15,39,26,13,31,23,13,91,81,70,30.22,30.13,30.00,10,7,4,15,6,20,0.00,3,,216
2013-12-16,37,29,21,30,25,18,100,88,75,30.18,30.05,29.98,8,3,0,13,5,16,0.00,1,Fog,24
2013-12-17,42,33,24,28,24,18,92,71,49,30.30,30.24,30.15,10,8,4,20,8,26,0.00,1,,287
2013-12-18,58,41,24,33,27,19,81,61,40,30.27,30.05,29.89,10,10,10,24,12,29,0.00,0,,179
2013-12-19,58,50,42,48,43,34,77,69,61,29.88,29.80,29.73,10,10,10,25,13,30,0.00,5,,175
2013-12-20,56,42,28,52,36,26,100,89,77,29.92,29.81,29.68,10,6,0,20,10,24,0.08,8,Fog-Rain,275
2013-12-21,32,31,29,29,28,27,92,89,85,29.87,29.75,29.58,10,7,2,17,9,23,0.54,8,Rain,6
2013-12-22,31,26,20,30,24,16,92,87,81,30.37,30.00,29.64,10,8,3,18,11,24,0.03,8,Rain,296
2013-12-23,20,13,5,13,8,0,88,82,76,30.65,30.54,30.33,10,9,2,18,9,21,T,5,Snow,298
2013-12-24,24,13,1,19,8,-4,95,84,73,30.63,30.49,30.31,10,10,10,16,8,21,0.00,2,,157
2013-12-25,32,28,24,29,26,19,92,87,81,30.35,30.30,30.26,10,7,3,16,9,20,0.00,7,,229
2013-12-26,45,33,20,34,27,19,100,82,64,30.36,30.31,30.25,10,8,4,20,9,25,0.00,0,,212
2013-12-27,53,39,25,34,29,24,100,73,45,30.39,30.31,30.24,10,9,5,12,8,14,0.00,0,,212
2013-12-28,55,43,31,32,28,25,78,58,38,30.24,30.07,29.91,10,10,10,17,9,23,0.00,0,,198
2013-12-29,40,27,13,30,16,1,82,70,58,30.33,30.14,29.89,10,10,10,25,14,32,0.00,5,,310
2013-12-30,28,19,9,13,5,0,80,61,42,30.37,30.30,30.22,10,10,10,13,6,15,0.00,4,,232
2013-12-31,47,32,17,23,19,14,84,63,41,30.39,30.25,30.14,10,10,10,16,8,19,0.00,0,,200